DW8913 Weather Reports


Display with metric or nautical units.
time (UTC)temp
F
wind
direction
speed
MPH
gust
MPH
rain 1hr
in
rain 24hr
in
rain mn
in
humidity
%
barometer
mb
20260902230108 75 213 1.0 7.0 0.00 0.09 0.02 88 1016.8
20260902224545 76 191 1.0 5.0 0.00 0.09 0.02 88 1017.0
20260902223020 76 228 1.0 4.0 0.00 0.09 0.02 88 1017.0
20260902221552 76 118 1.0 4.0 0.00 0.09 0.02 87 1017.1
20260902220035 76 181 0.0 5.0 0.00 0.09 0.02 87 1017.2
20260902214613 76 214 1.0 4.0 0.00 0.09 0.02 87 1017.4
20260902213034 76 5 1.0 5.0 0.01 0.09 0.02 87 1017.5
20260902211502 75 219 1.0 7.0 0.01 0.09 0.02 87 1017.3
20260902210046 75 213 1.0 5.0 0.01 0.09 0.02 88 1017.2
20260902204514 75 335 1.0 6.0 0.01 0.09 0.02 88 1017.2
20260902203048 75 359 2.0 9.0 0.01 0.08 0.01 88 1016.5
20260902201530 75 268 2.0 6.0 0.01 0.08 0.01 87 1016.9
20260902200057 75 191 1.0 6.0 0.01 0.08 0.01 87 1016.9
20260902194524 76 16 2.0 6.0 0.01 0.08 0.01 86 1017.3
20260902193108 76 64 1.0 4.0 0.00 0.07 0.00 83 1017.0
20260902191542 77 49 0.0 4.0 0.00 0.07 0.00 82 1017.9
20260902190006 78 224 2.0 6.0 0.00 0.07 0.00 80 1018.3
20260902184548 79 82 1.0 5.0 0.00 0.07 0.00 78 1018.6
20260902183020 80 296 1.0 4.0 0.00 0.07 0.00 76 1018.8
20260902181559 80 209 1.0 7.0 0.00 0.07 0.00 77 1018.9
20260902180031 81 239 1.0 7.0 0.00 0.07 0.00 78 1018.9
20260902174603 81 223 2.0 7.0 0.00 0.07 0.00 76 1018.9
20260902173047 81 40 2.0 8.0 0.00 0.07 0.00 76 1018.6
20260902171627 81 203 2.0 7.0 0.00 0.07 0.00 77 1018.5
20260902170044 81 216 2.0 7.0 0.00 0.07 0.00 76 1018.5
20260902164510 81 136 3.0 7.0 0.00 0.07 0.00 76 1018.3
20260902163052 82 194 2.0 6.0 0.00 0.07 0.00 76 1018.1
20260902161521 81 274 1.0 5.0 0.00 0.07 0.00 75 1018.4
20260902160107 82 99 0.0 5.0 0.00 0.07 0.00 76 1018.4
20260902154542 81 20 1.0 5.0 0.00 0.07 0.00 77 1018.3
20260902153112 80 225 2.0 5.0 0.00 0.07 0.00 77 1018.5
20260902151544 79 153 2.0 7.0 0.00 0.07 0.00 81 1018.8
20260902150021 78 258 3.0 8.0 0.00 0.07 0.00 80 1018.8
20260902144603 79 235 3.0 11.0 0.00 0.07 0.00 80 1018.7
20260902143027 79 240 2.0 8.0 0.00 0.07 0.00 81 1018.6
20260902141502 79 41 3.0 9.0 0.00 0.07 0.00 82 1018.5
20260902140046 78 351 1.0 9.0 0.00 0.07 0.00 84 1018.4
20260902134519 78 175 2.0 7.0 0.00 0.07 0.00 84 1018.1
20260902133102 78 221 2.0 6.0 0.00 0.07 0.00 84 1018.0
20260902131528 78 234 2.0 9.0 0.00 0.07 0.00 84 1017.7
20260902130109 77 7 2.0 9.0 0.00 0.07 0.00 85 1017.6
20260902124535 77 233 2.0 6.0 0.00 0.07 0.00 85 1017.6
20260902123006 77 271 0.0 6.0 0.00 0.07 0.00 87 1017.6
20260902121548 76 248 2.0 5.0 0.00 0.07 0.00 88 1017.6
20260902120014 75 136 1.0 3.0 0.00 0.07 0.00 89 1017.7
20260902114553 75 354 1.0 9.0 0.00 0.07 0.00 90 1017.6
20260902113024 75 344 1.0 6.0 0.00 0.07 0.00 90 1017.4
20260902111613 75 10 1.0 6.0 0.00 0.07 0.00 91 1017.2
20260902110051 75 213 1.0 7.0 0.00 0.07 0.00 91 1017.1
20260902104515 74 257 0.0 4.0 0.00 0.07 0.00 92 1016.9
20260902103048 74 346 2.0 5.0 0.00 0.07 0.00 93 1016.8
20260902101515 74 278 0.0 2.0 0.00 0.07 0.00 94 1016.6
20260902100056 73 349 0.0 2.0 0.00 0.07 0.00 94 1016.7
20260902094526 73 224 0.0 3.0 0.00 0.07 0.00 94 1016.7
20260902093108 73 119 0.0 2.0 0.00 0.07 0.00 93 1016.5
20260902091534 73 241 0.0 3.0 0.00 0.07 0.00 93 1016.4
20260902090010 73 34 0.0 3.0 0.00 0.07 0.00 93 1016.5
20260902084550 73 36 0.0 5.0 0.00 0.07 0.00 93 1016.4
20260902083020 73 267 1.0 4.0 0.00 0.07 0.00 93 1016.3
20260902081558 73 238 1.0 4.0 0.00 0.07 0.00 93 1016.1
20260902080029 73 163 1.0 3.0 0.00 0.07 0.00 92 1016.0
20260902074605 73 279 0.0 3.0 0.00 0.07 0.00 91 1016.0
20260902073045 73 60 0.0 4.0 0.00 0.07 0.00 90 1015.6
20260902071511 73 187 0.0 5.0 0.00 0.07 0.00 90 1015.7
20260902070054 73 243 1.0 3.0 0.00 0.07 0.00 90 1015.7
20260902064536 73 265 0.0 3.0 0.00 0.07 0.00 90 1015.8
20260902063108 73 44 0.0 2.0 0.00 0.07 0.00 90 1015.6
20260902061541 73 305 0.0 4.0 0.00 0.07 0.00 89 1015.8
20260902060009 74 44 0.0 1.0 0.00 0.07 0.00 89 1015.9
20260902054554 74 215 0.0 3.0 0.00 0.07 0.00 88 1015.5
20260902053022 74 85 0.0 1.0 0.00 0.07 0.00 88 1015.3
20260902051610 75 34 0.0 2.0 0.00 0.07 0.00 88 1015.6
20260902050040 75 153 0.0 0.0 0.00 0.07 0.00 87 1015.6
20260902044508 75 116 0.0 2.0 0.00 0.07 0.00 86 1015.4
20260902043048 75 175 0.0 4.0 0.00 0.07 0.00 86 1015.3
20260902041533 74 160 0.0 2.0 0.00 0.07 0.00 86 1015.6
20260902040052 74 160 1.0 4.0 0.00 0.07 0.00 85 1016.0
20260902034521 73 164 0.0 2.0 0.00 0.07 0.07 87 1015.8
20260902033102 73 33 0.0 3.0 0.01 0.07 0.07 87 1015.8
20260902031529 73 228 1.0 6.0 0.07 0.07 0.07 88 1016.3
20260902030110 73 197 1.0 5.0 0.07 0.07 0.07 89 1016.2
20260902024648 72 6 3.0 8.0 0.07 0.07 0.07 89 1016.8
20260902023006 74 14 5.0 14.0 0.05 0.05 0.05 85 1016.9
20260902021545 81 30 2.0 5.0 0.00 0.00 0.00 85 1015.2
20260902020032 81 173 0.0 3.0 0.00 0.00 0.00 84 1013.4
20260902014608 81 167 0.0 4.0 0.00 0.00 0.00 84 1013.3
20260902013033 81 158 0.0 3.0 0.00 0.00 0.00 84 1012.6
20260902011608 81 117 0.0 3.0 0.00 0.00 0.00 82 1012.8
20260902010038 81 150 1.0 4.0 0.00 0.00 0.00 83 1012.3
20260902004514 80 142 0.0 2.0 0.00 0.00 0.00 85 1012.4
20260902003055 81 161 0.0 5.0 0.00 0.00 0.00 85 1012.6
20260902001526 81 146 0.0 0.0 0.00 0.00 0.00 84 1012.5
20260902000108 81 147 0.0 3.0 0.00 0.00 0.00 85 1012.4
20260901234534 81 71 0.0 3.0 0.00 0.00 0.00 84 1012.5
20260901233112 82 171 0.0 2.0 0.00 0.00 0.00 81 1012.8
20260901231547 82 127 1.0 4.0 0.00 0.00 0.00 80 1012.8